Weather History for Parkersburg, WV

Change the Weather History Date:

Tuesday, April 16, 2013

  Actual Average Record
Temperature  
Mean Temperature 71 °F 54 °F  
Max Temperature 83 °F 67 °F 88 °F (2002)
Min Temperature 59 °F 42 °F 22 °F (1962)
Degree Days  
Heating Degree Days 0 11  
Month to date heating degree days 186 216  
Since 1 July heating degree days 4734 4677  
Cooling Degree Days 6 1  
Month to date cooling degree days 22 6  
Year to date cooling degree days 22 9  
Growing Degree Days 20 (Base 50)    
Moisture  
Dew Point 55 °F    
Average Humidity 67    
Maximum Humidity 97    
Minimum Humidity 37    
Precipitation  
Precipitation 0.71 in 0.10 in 1.65 in (2011)
Month to date precipitation 0.85 1.72  
Year to date precipitation 9.06 11.10  
Sea Level Pressure  
Sea Level Pressure 30.12 in    
Wind  
Wind Speed 9 mph (SSW)    
Max Wind Speed 24 mph    
Max Gust Speed 31 mph    
Visibility 9 miles    
Events Rain , Thunderstorm    
T = Trace of Precipitation, MM = Missing Value Source: NWS Daily Summary

Daily Weather History Graph

Daily Weather History Graph

Search for Another Location

Airport:

Trip Planner

Search our weather history database for the weather conditions in past years. The results will help you decide how hot, cold, wet, or windy it might be!

Date:

Astronomy

Apr. 16, 2013 Rise Set
Actual Time 6:46 AM EDT 8:04 PM EDT
Civil Twilight 6:19 AM EDT 8:32 PM EDT
Nautical Twilight 5:45 AM EDT 9:05 PM EDT
Astronomical Twilight 5:10 AM EDT 9:41 PM EDT
Moon 11:05 AM EDT (4/16) 12:59 AM EDT (4/16)
Length of Visible Light 14h 13m
Length of Day
13h 17m
Waxing Crescent, 33% of the Moon is Illuminated
Apr 16
Waxing Crescent
Apr 18
First Quarter
Apr 25
Full
May 2
Last Quarter
May 9
New

Hourly Weather History & Observations

Time (EDT) Temp. Heat Index Dew Point Humidity Pressure Visibility Wind Dir Wind Speed Gust Speed Precip Events Conditions
12:53 AM 60.1 °F - 48.9 °F 67% 30.08 in 10.0 mi SE 6.9 mph - N/A   Clear
1:53 AM 60.1 °F - 50.0 °F 69% 30.07 in 10.0 mi SSE 9.2 mph - N/A   Clear
2:53 AM 59.0 °F - 50.0 °F 72% 30.06 in 10.0 mi SSE 6.9 mph - N/A   Clear
3:53 AM 59.0 °F - 50.0 °F 72% 30.06 in 10.0 mi SSE 6.9 mph - N/A   Clear
4:53 AM 60.1 °F - 50.0 °F 69% 30.07 in 10.0 mi SSE 9.2 mph - N/A   Clear
5:53 AM 60.1 °F - 50.0 °F 69% 30.09 in 10.0 mi South 8.1 mph - N/A   Clear
6:53 AM 61.0 °F - 50.0 °F 67% 30.11 in 10.0 mi South 9.2 mph - N/A   Clear
7:53 AM 62.1 °F - 51.1 °F 67% 30.14 in 10.0 mi South 12.7 mph 19.6 mph N/A   Clear
8:53 AM 64.9 °F - 52.0 °F 63% 30.17 in 10.0 mi South 12.7 mph 20.7 mph N/A   Clear
9:53 AM 69.1 °F - 53.1 °F 57% 30.16 in 10.0 mi SSW 16.1 mph 24.2 mph N/A   Clear
10:53 AM 71.1 °F - 53.1 °F 53% 30.17 in 10.0 mi SSW 10.4 mph 19.6 mph N/A   Mostly Cloudy
11:53 AM 73.0 °F - 55.0 °F 53% 30.17 in 10.0 mi SW 13.8 mph 21.9 mph N/A   Mostly Cloudy
12:53 PM 75.0 °F - 55.9 °F 51% 30.14 in 10.0 mi SW 9.2 mph 19.6 mph N/A   Scattered Clouds
1:53 PM 75.9 °F - 57.0 °F 52% 30.14 in 10.0 mi SSW 6.9 mph - N/A   Overcast
2:53 PM 79.0 °F - 57.9 °F 48% 30.11 in 10.0 mi SW 8.1 mph 16.1 mph N/A   Partly Cloudy
3:53 PM 80.1 °F 80.4 °F 57.0 °F 45% 30.07 in 10.0 mi South 11.5 mph 21.9 mph N/A   Clear
4:53 PM 82.9 °F 82.1 °F 55.9 °F 39% 30.05 in 10.0 mi SSW 9.2 mph 18.4 mph N/A   Clear
5:53 PM 82.9 °F 81.9 °F 54.0 °F 37% 30.03 in 10.0 mi SW 10.4 mph 18.4 mph N/A   Clear
6:53 PM 81.0 °F 80.7 °F 55.0 °F 41% 30.05 in 10.0 mi SSW 6.9 mph - N/A   Mostly Cloudy
7:19 PM 80.6 °F 80.5 °F 55.4 °F 42% 30.05 in 10.0 mi SW 3.5 mph - N/A   Overcast
7:26 PM 80.6 °F 80.5 °F 55.4 °F 42% 30.05 in 10.0 mi SSW 4.6 mph - N/A Thunderstorm Thunderstorm
7:40 PM 78.8 °F - 55.4 °F 44% 30.08 in 10.0 mi NW 13.8 mph 19.6 mph 0.00 in Rain , Thunderstorm Light Thunderstorms and Rain
7:44 PM 75.2 °F - 57.2 °F 53% 30.09 in 10.0 mi NNW 13.8 mph 19.6 mph 0.00 in Rain , Thunderstorm Light Thunderstorms and Rain
7:53 PM 69.1 °F - 59.0 °F 70% 30.10 in 9.0 mi WNW 19.6 mph 28.8 mph 0.00 in Rain , Thunderstorm Light Thunderstorms and Rain
8:09 PM 64.4 °F - 60.8 °F 88% 30.13 in 1.8 mi WNW 16.1 mph 20.7 mph 0.15 in Rain , Thunderstorm Heavy Thunderstorms and Rain
8:24 PM 64.4 °F - 60.8 °F 88% 30.17 in 3.0 mi West 12.7 mph 20.7 mph 0.38 in Rain , Thunderstorm Heavy Thunderstorms and Rain
8:53 PM 64.0 °F - 60.1 °F 87% 30.20 in 4.0 mi NW 16.1 mph 28.8 mph 0.66 in Rain , Thunderstorm Light Rain
9:45 PM 62.6 °F - 59.0 °F 88% 30.21 in 10.0 mi North 3.5 mph - 0.04 in   Partly Cloudy
9:53 PM 62.1 °F - 59.0 °F 90% 30.20 in 10.0 mi Calm Calm - 0.04 in   Clear
10:53 PM 61.0 °F - 59.0 °F 93% 30.18 in 10.0 mi NNE 4.6 mph - 0.01 in   Mostly Cloudy
11:53 PM 61.0 °F - 59.0 °F 93% 30.18 in 10.0 mi Calm Calm - N/A   Clear